SCP
0 0 0 0 0 0 -0 0 0 0 0 0 0 0 0 0 0 0 0 0 0 0 0 0 0 0 0 0 0 0 0 0 0 0 0 0 0 0 0 0 0 0 0 0
0 0 0 0 0 0 -0 0 0 0 0 0 0 0 0 0 0 0 0 0 0 0 0 0 0 0 0 0 0 0 0 0 0 0 0 0 0 0 0 0 0 0 0 0
0 0 0 0 0 0 0 0 0 0 0 0 0 0 0 0 0 0 0 0 0 0 0 0 0 0 0 0 0 0 0 0 0 0 0 0 0 0 0 0 0 0 0 0
0 0 0 0 0 0 0 0 0 0 0 0 0 0 0 0 0 0 0 0 0 0 0 0 0 0 0 0 0 0 0 0 0 0 0 0 0 0 0 0 0 0 0 0
0 0 0 0 0 0 0 0 0 0 0 0 0 0 0 0 0 0 0 0 0 0 0 0 0 0 0 0 0 0 0 0 0 0 0 0 0 0 0 0 0 0 0 0
0 0 0 0 0 0 0 0 0 0 0 0 0 0 0 0 0 0 0 0 0 0 0 0 0 0 0 0 0 0 0 0 0 0 0 0 0 0 0 0 0 0 0 0
0 0 0 0 0 0 0 0 0 0 0 0 0 0 0 0 0 0 0 0 0 0 0 0 0 0 0 0 0 0 1 0 0 0 0 0 0 0 0 0 0 0 0 0
-0 0 0 0 0 0 0 0 0 0 0 0 0 0 0 0 0 0 0 0 0 0 0 0 0 0 0 0 0 0 0 0 0 0 0 0 0 0 0 0 0 0 0 0
-0 0 0 0 0 0 0 0 0 0 0 0 0 0 0 0 0 0 0 0 0 0 0 0 0 0 0 0 0 0 0 0 0 0 0 0 0 0 0 0 0 0 0 0
0 0 0 0 0 0 0 0 0 0 0 0 0 0 0 0 0 0 0 0 0 0 0 0 0 0 0 0 0 0 1 1 0 1 0 0 0 0 0 0 0 0 0 0
0 0 0 0 0 0 0 0 0 0 0 0 0 0 0 0 0 0 0 0 0 0 0 0 0 0 0 0 0 0 0 0 1 0 0 0 0 0 0 0 0 0 0 0
0 0 0 0 0 0 0 0 0 0 0 0 0 0 0 0 0 0 0 0 0 0 0 0 0 0 0 1 0 0 0 0 1 0 0 0 0 0 0 0 0 0 0 0
0 0 0 0 0 0 -0 0 0 0 0 0 0 0 0 0 0 0 0 0 0 0 0 0 0 0 0 1 1 0 0 0 0 0 0 0 0 0 0 0 0 0 0 0
0 0 -0 -0 -0 -0 0 -0 -0 0 -0 0 0 0 0 0 0 0 0 0 0 0 0 0 0 0 0 0 0 1 0 0 0 0 0 0 0 0 0 0 0 0 0 0
0 -0 -0 -0 -0 -0 -0 -0 0 -0 0 0 0 0 0 0 0 0 0 0 0 0 0 0 0 0 0 0 0 0 0 0 0 0 0 0 0 0 0 0 0 0 0 0
0 -0 -0 0 0 -0 -0 0 -0 0 0 0 0 0 0 0 0 0 0 0 0 0 0 0 0 0 0 0 0 0 0 0 0 0 0 0 0 0 0 0 0 0 0 0
-0 0 0 0 0 -0 0 0 0 -0 0 0 0 0 0 0 0 0 0 0 0 0 0 0 0 0 0 0 0 0 0 0 0 0 0 0 0 0 0 0 0 0 0 0
0 0 -0 0 0 0 0 0 0 -0 0 0 0 0 0 0 0 0 0 0 0 0 0 0 0 0 0 0 0 0 0 0 0 0 0 0 0 0 0 0 0 0 0 0
0 0 0 0 0 0 0 0 0 0 0 0 0 0 0 0 0 0 0 0 0 0 0 0 0 0 0 0 0 0 0 0 0 0 0 0 0 0 0 0 0 0 0 0
0 0 0 0 0 0 0 0 0 0 0 0 0 0 0 0 0 0 0 0 0 0 0 0 0 0 0 0 0 0 0 0 0 0 0 0 0 0 0 -0 -0 -0 0 0
0 0 0 0 0 0 0 0 0 0 0 0 0 0 0 0 0 0 0 0 0 0 0 0 0 0 0 0 0 0 0 0 -0 -0 -0 0 0 0 -0 -0 0 0 0 0
0 0 0 0 0 0 0 0 0 0 0 0 0 0 0 0 0 0 0 0 0 0 0 0 0 0 0 0 0 0 0 0 0 0 0 0 0 0 0 0 0 0 0 0
0 0 0 0 0 0 0 0 0 0 0 0 0 0 0 0 0 0 0 0 0 0 0 0 0 0 0 0 0 0 0 0 0 -0 -0 0 0 0 0 0 0 0 0 0
0 0 0 0 0 0 0 0 0 0 0 0 0 0 0 0 0 0 0 0 0 0 0 0 0 0 0 0 0 0 0 0 0 0 0 0 0 0 0 0 0 0 0 0
0 0 0 0 0 0 0 0 0 0 0 0 0 -0 0 0 0 0 0 0 0 0 0 0 0 0 0 0 0 0 0 0 0 0 0 0 0 0 0 0 0 0 0 0
0 0 0 0 0 0 0 0 0 0 0 0 0 0 0 0 0 0 0 0 0 0 0 0 0 0 0 0 0 0 0 0 0 0 0 0 0 0 0 0 0 0 0 0
0 0 0 0 0 0 0 0 0 0 0 0 0 0 0 0 0 0 0 0 0 0 0 0 0 0 0 0 0 0 0 0 0 0 0 0 0 -0 -0 0 0 0 0 0
Wind_Speed_500mb
56 50 43 44 50 59 51 21 8 12 23 8 6 8 9 7 13 34 29 10 14 18 14 16 12 16 16 8 20 23 26 20 26 42 9 19 38 38 35 25 24 10 18 26
53 45 35 36 42 50 53 27 16 15 22 9 10 7 9 11 13 14 15 29 27 19 16 13 22 21 20 30 5 14 18 11 19 21 32 29 19 39 39 30 22 34 29 26
47 31 33 35 38 41 43 12 8 5 12 7 5 8 11 11 11 20 16 14 15 14 15 17 11 10 10 6 26 26 19 16 22 29 38 32 33 34 35 39 32 31 33 36
43 31 28 30 35 31 33 6 5 7 8 3 17 7 8 21 11 8 8 13 29 22 20 29 35 32 35 36 26 9 16 14 30 49 52 55 50 48 40 40 51 42 38 38
38 32 33 30 26 24 18 8 7 11 18 27 15 9 7 12 10 6 20 15 24 25 19 29 29 29 32 24 6 12 8 4 4 31 51 47 56 55 47 47 48 37 41 27
43 38 33 28 25 21 8 8 11 10 16 9 9 7 8 7 15 17 29 23 19 22 22 14 31 34 34 15 7 9 11 2 9 19 25 35 44 50 48 42 43 42 40 31
44 43 36 31 29 23 23 16 11 8 10 12 12 18 29 33 29 22 42 40 20 10 23 46 42 37 39 28 27 19 6 10 4 15 7 19 34 44 49 47 40 33 29 24
44 39 37 34 26 25 27 23 15 10 13 17 25 28 21 33 35 31 40 39 34 36 20 13 15 16 16 22 17 21 10 12 6 8 11 20 20 9 35 44 47 36 34 30
43 38 35 30 31 26 31 29 25 18 9 12 21 14 17 16 17 19 12 20 27 8 8 10 12 19 22 16 23 23 30 26 13 5 19 12 8 13 15 6 29 21 23 23
34 34 33 28 29 28 32 36 30 27 18 40 40 22 21 15 12 11 16 21 14 10 5 15 14 17 8 18 23 15 8 5 10 17 17 12 14 34 13 21 13 18 22 18
29 31 30 28 29 27 30 36 30 38 18 55 58 55 44 32 22 9 23 21 5 6 7 8 5 7 3 8 15 19 15 15 7 5 13 13 52 27 10 9 19 39 54 60
30 27 30 32 30 26 25 34 32 33 40 38 47 54 49 53 54 27 12 14 20 9 6 4 6 5 3 2 14 9 12 12 13 17 6 32 33 21 5 24 38 36 58 64
24 27 23 24 24 20 19 28 23 29 30 55 53 52 24 35 58 64 31 21 12 6 10 5 5 8 3 4 4 11 8 17 11 11 9 19 18 26 35 36 36 32 39 44
25 24 20 17 13 17 24 26 25 28 13 11 15 18 36 19 19 39 61 28 13 11 16 7 6 6 2 1 4 5 8 4 21 8 24 14 18 21 23 37 40 52 55 52
23 11 13 13 18 15 16 25 32 26 15 11 30 58 8 5 27 37 51 53 48 19 7 5 5 6 5 4 5 7 14 4 6 14 19 9 15 27 41 53 43 40 56 55
10 7 6 10 19 15 15 9 4 23 28 10 8 18 11 12 5 23 27 32 26 10 10 12 11 2 6 5 6 14 23 10 19 4 38 42 27 23 35 50 42 45 50 50
5 7 11 13 18 17 10 8 16 15 13 8 10 10 10 9 9 17 17 27 17 16 8 9 6 7 9 6 7 32 20 21 40 39 60 39 32 24 38 43 34 34 42 39
7 6 11 18 20 20 8 4 7 30 15 8 6 9 11 2 7 9 19 18 13 5 6 2 5 9 10 9 21 23 20 42 57 48 51 44 38 43 37 28 21 27 29 25
11 11 16 11 3 2 5 19 7 25 11 10 5 7 6 15 0 6 9 11 8 8 0 6 5 6 10 7 19 29 30 25 28 41 39 35 36 25 29 27 24 28 31 31
12 10 7 5 7 12 10 4 2 7 9 9 6 8 7 9 6 4 6 2 5 5 6 8 6 9 21 30 28 29 23 30 29 29 23 30 21 25 21 24 27 27 26 22
13 11 6 9 11 5 3 3 4 3 5 10 11 11 9 5 4 4 4 4 2 5 5 2 5 5 9 9 16 24 25 28 25 23 19 19 16 12 16 22 22 23 21 18
16 13 12 10 7 4 4 4 4 6 6 5 6 10 11 11 8 4 3 4 2 8 3 6 6 5 14 15 9 13 17 20 23 22 20 21 22 20 17 16 17 19 17 19
9 9 8 7 7 7 8 11 5 7 9 11 20 8 8 9 6 5 4 8 8 1 7 5 6 13 14 17 17 25 30 27 21 18 18 23 26 29 32 29 26 25 23 24
8 10 8 7 6 7 4 9 11 13 16 27 21 11 10 9 5 6 8 8 3 6 6 3 5 15 16 14 20 21 20 19 21 23 29 35 36 36 33 32 29 28 19 19
10 8 8 7 13 14 20 19 15 19 27 18 1 3 9 6 7 10 8 7 10 8 7 1 15 13 11 15 19 18 21 23 25 27 29 27 27 31 35 32 30 25 22 20
10 14 7 21 8 19 25 34 43 43 27 11 5 4 5 10 6 8 11 6 6 6 6 10 10 11 13 18 21 23 25 25 23 22 19 17 21 25 23 24 26 25 16 17
8 8 13 22 8 13 21 24 37 37 14 7 6 9 7 5 7 7 8 7 6 14 13 10 12 15 16 14 17 19 18 18 18 18 13 15 23 29 20 14 17 21 22 18
Wind_Direction_500mb
316 320 321 325 329 333 332 340 301 300 165 228 208 226 213 244 237 236 237 232 222 216 227 264 257 241 250 196 148 170 206 212 229 236 233 255 232 219 209 222 202 230 252 230
320 321 329 333 337 343 338 320 276 246 223 244 228 283 279 269 246 219 197 214 219 217 234 235 233 231 244 236 224 184 163 202 218 241 240 232 238 227 223 233 248 218 231 232
323 320 320 324 328 340 337 309 309 297 205 267 317 347 277 255 272 256 242 236 198 206 223 226 256 232 261 259 233 221 172 194 216 233 234 233 230 239 223 220 229 226 229 242
306 303 308 313 314 325 336 260 279 329 309 165 330 283 295 289 280 259 244 210 225 223 237 244 245 250 264 273 269 260 184 214 231 231 229 216 220 226 219 219 231 232 232 222
302 294 308 304 301 309 325 281 308 326 290 296 292 257 229 265 304 295 256 244 246 248 238 247 260 238 236 251 233 219 208 208 261 249 240 234 219 218 226 220 223 229 239 225
300 292 291 291 292 305 281 238 278 290 272 287 288 262 304 272 348 276 255 301 305 278 274 286 277 258 266 260 255 247 165 111 330 285 241 230 238 221 220 224 223 210 224 226
297 293 286 283 283 272 272 271 276 260 268 257 270 296 298 293 295 276 285 290 285 254 300 312 273 248 242 236 229 214 204 114 108 294 227 215 238 233 225 216 219 217 247 250
303 297 291 276 273 260 267 257 244 241 267 273 285 266 286 294 292 271 267 278 267 297 306 270 244 221 217 220 200 187 206 106 59 315 282 282 230 195 219 219 237 231 232 236
301 297 286 280 269 254 255 261 245 237 275 261 268 319 295 290 295 287 257 311 316 284 237 229 232 216 212 184 158 190 107 108 99 340 288 269 46 339 346 297 227 186 212 223
297 292 292 277 267 256 249 252 253 240 244 261 270 265 282 284 303 290 305 342 328 349 225 222 218 229 247 206 193 174 139 45 52 315 266 270 7 329 271 186 200 159 181 154
298 295 290 289 278 268 248 252 252 251 261 272 265 259 267 274 278 289 324 322 48 300 241 241 166 221 209 205 167 166 157 144 129 305 251 248 355 321 258 50 104 131 110 110
290 298 297 274 270 255 253 255 260 266 251 263 272 271 260 252 251 259 251 296 301 284 309 352 286 255 262 270 177 198 157 158 142 199 274 323 339 291 5 107 94 90 104 108
287 300 297 276 273 265 258 263 257 259 269 285 267 265 282 262 247 249 239 269 207 217 357 294 277 268 257 195 137 161 59 153 132 131 99 288 4 54 70 79 78 78 88 96
299 300 292 297 296 283 264 259 269 260 269 278 294 304 296 285 225 224 221 214 167 326 337 256 259 258 238 209 26 67 31 312 141 95 139 157 72 68 73 83 83 82 79 78
314 291 304 308 279 288 274 277 267 260 236 299 294 309 344 333 226 225 219 227 237 296 7 268 254 284 250 112 111 41 344 348 192 165 135 112 136 122 96 83 74 75 84 79
312 315 278 295 304 305 309 297 285 226 220 276 296 309 314 351 255 196 196 196 204 221 182 244 259 324 295 65 80 7 357 352 239 32 130 108 117 93 87 92 86 81 76 71
337 329 305 300 305 300 299 290 359 172 192 260 292 292 286 339 125 164 177 180 201 205 222 247 315 7 55 50 49 338 16 70 95 108 113 89 78 72 75 72 67 67 63 57
327 294 271 289 299 308 325 341 261 203 267 277 286 280 300 344 190 170 174 160 180 267 279 221 8 28 59 58 3 12 50 74 82 84 91 93 92 82 74 71 64 64 56 49
334 315 310 311 347 85 306 345 181 216 232 300 272 293 324 337 289 153 166 171 151 187 87 46 54 49 57 1 8 24 41 78 81 66 66 66 63 80 73 68 63 59 51 48
357 357 357 349 347 328 340 10 176 184 223 237 259 275 280 326 329 140 160 179 115 105 61 103 63 69 76 37 56 68 71 81 87 77 59 50 42 52 67 36 35 39 32 26
3 355 342 330 333 335 304 294 259 213 237 214 249 257 290 305 318 6 30 122 127 95 96 84 78 64 73 109 34 71 88 104 123 126 134 109 98 77 61 55 46 44 45 42
338 323 321 335 349 329 298 282 265 243 312 279 268 304 265 307 320 305 20 52 61 81 86 74 82 76 64 98 92 74 89 95 90 88 82 74 67 63 59 56 55 52 46 32
348 349 335 354 350 27 17 359 6 337 348 326 329 319 321 333 353 303 339 52 53 100 51 55 72 86 70 102 94 72 71 74 83 79 72 66 58 44 39 38 35 31 30 24
22 356 13 6 27 13 309 319 309 301 295 315 309 293 20 352 349 337 46 30 270 72 80 57 91 93 83 70 83 71 63 63 60 54 47 44 39 35 30 27 26 26 33 32
40 15 27 14 309 305 304 310 331 338 324 328 266 71 318 337 43 12 4 42 44 25 80 101 85 102 94 79 68 64 61 55 48 40 34 32 29 28 27 23 21 20 25 31
30 27 340 339 310 1 14 10 5 357 346 359 28 56 54 27 20 42 9 60 16 30 56 68 75 81 70 62 54 43 39 37 35 25 15 14 17 10 9 14 19 20 19 24
25 355 339 341 314 331 352 352 347 358 355 18 355 47 24 288 44 43 21 64 309 21 44 54 78 63 60 56 46 36 28 24 25 20 32 34 24 26 16 16 16 23 19 11
Wind_Speed_850mb
56 50 43 44 50 59 51 21 8 12 23 8 6 8 9 7 13 34 29 10 14 18 14 16 12 16 16 8 20 23 26 20 26 42 9 19 38 38 35 25 24 10 18 26
53 45 35 36 42 50 53 27 16 15 22 9 10 7 9 11 13 14 15 29 27 19 16 13 22 21 20 30 5 14 18 11 19 21 32 29 19 39 39 30 22 34 29 26
47 31 33 35 38 41 43 12 8 5 12 7 5 8 11 11 11 20 16 14 15 14 15 17 11 10 10 6 26 26 19 16 22 29 38 32 33 34 35 39 32 31 33 36
43 31 28 30 35 31 33 6 5 7 8 3 17 7 8 21 11 8 8 13 29 22 20 29 35 32 35 36 26 9 16 14 30 49 52 55 50 48 40 40 51 42 38 38
38 32 33 30 26 24 18 8 7 11 18 27 15 9 7 12 10 6 20 15 24 25 19 29 29 29 32 24 6 12 8 4 4 31 51 47 56 55 47 47 48 37 41 27
43 38 33 28 25 21 8 8 11 10 16 9 9 7 8 7 15 17 29 23 19 22 22 14 31 34 34 15 7 9 11 2 9 19 25 35 44 50 48 42 43 42 40 31
44 43 36 31 29 23 23 16 11 8 10 12 12 18 29 33 29 22 42 40 20 10 23 46 42 37 39 28 27 19 6 10 4 15 7 19 34 44 49 47 40 33 29 24
44 39 37 34 26 25 27 23 15 10 13 17 25 28 21 33 35 31 40 39 34 36 20 13 15 16 16 22 17 21 10 12 6 8 11 20 20 9 35 44 47 36 34 30
43 38 35 30 31 26 31 29 25 18 9 12 21 14 17 16 17 19 12 20 27 8 8 10 12 19 22 16 23 23 30 26 13 5 19 12 8 13 15 6 29 21 23 23
34 34 33 28 29 28 32 36 30 27 18 40 40 22 21 15 12 11 16 21 14 10 5 15 14 17 8 18 23 15 8 5 10 17 17 12 14 34 13 21 13 18 22 18
29 31 30 28 29 27 30 36 30 38 18 55 58 55 44 32 22 9 23 21 5 6 7 8 5 7 3 8 15 19 15 15 7 5 13 13 52 27 10 9 19 39 54 60
30 27 30 32 30 26 25 34 32 33 40 38 47 54 49 53 54 27 12 14 20 9 6 4 6 5 3 2 14 9 12 12 13 17 6 32 33 21 5 24 38 36 58 64
24 27 23 24 24 20 19 28 23 29 30 55 53 52 24 35 58 64 31 21 12 6 10 5 5 8 3 4 4 11 8 17 11 11 9 19 18 26 35 36 36 32 39 44
25 24 20 17 13 17 24 26 25 28 13 11 15 18 36 19 19 39 61 28 13 11 16 7 6 6 2 1 4 5 8 4 21 8 24 14 18 21 23 37 40 52 55 52
23 11 13 13 18 15 16 25 32 26 15 11 30 58 8 5 27 37 51 53 48 19 7 5 5 6 5 4 5 7 14 4 6 14 19 9 15 27 41 53 43 40 56 55
10 7 6 10 19 15 15 9 4 23 28 10 8 18 11 12 5 23 27 32 26 10 10 12 11 2 6 5 6 14 23 10 19 4 38 42 27 23 35 50 42 45 50 50
5 7 11 13 18 17 10 8 16 15 13 8 10 10 10 9 9 17 17 27 17 16 8 9 6 7 9 6 7 32 20 21 40 39 60 39 32 24 38 43 34 34 42 39
7 6 11 18 20 20 8 4 7 30 15 8 6 9 11 2 7 9 19 18 13 5 6 2 5 9 10 9 21 23 20 42 57 48 51 44 38 43 37 28 21 27 29 25
11 11 16 11 3 2 5 19 7 25 11 10 5 7 6 15 0 6 9 11 8 8 0 6 5 6 10 7 19 29 30 25 28 41 39 35 36 25 29 27 24 28 31 31
12 10 7 5 7 12 10 4 2 7 9 9 6 8 7 9 6 4 6 2 5 5 6 8 6 9 21 30 28 29 23 30 29 29 23 30 21 25 21 24 27 27 26 22
13 11 6 9 11 5 3 3 4 3 5 10 11 11 9 5 4 4 4 4 2 5 5 2 5 5 9 9 16 24 25 28 25 23 19 19 16 12 16 22 22 23 21 18
16 13 12 10 7 4 4 4 4 6 6 5 6 10 11 11 8 4 3 4 2 8 3 6 6 5 14 15 9 13 17 20 23 22 20 21 22 20 17 16 17 19 17 19
9 9 8 7 7 7 8 11 5 7 9 11 20 8 8 9 6 5 4 8 8 1 7 5 6 13 14 17 17 25 30 27 21 18 18 23 26 29 32 29 26 25 23 24
8 10 8 7 6 7 4 9 11 13 16 27 21 11 10 9 5 6 8 8 3 6 6 3 5 15 16 14 20 21 20 19 21 23 29 35 36 36 33 32 29 28 19 19
10 8 8 7 13 14 20 19 15 19 27 18 1 3 9 6 7 10 8 7 10 8 7 1 15 13 11 15 19 18 21 23 25 27 29 27 27 31 35 32 30 25 22 20
10 14 7 21 8 19 25 34 43 43 27 11 5 4 5 10 6 8 11 6 6 6 6 10 10 11 13 18 21 23 25 25 23 22 19 17 21 25 23 24 26 25 16 17
8 8 13 22 8 13 21 24 37 37 14 7 6 9 7 5 7 7 8 7 6 14 13 10 12 15 16 14 17 19 18 18 18 18 13 15 23 29 20 14 17 21 22 18
Wind_Direction_850mb
316 320 321 325 329 333 332 340 301 300 165 228 208 226 213 244 237 236 237 232 222 216 227 264 257 241 250 196 148 170 206 212 229 236 233 255 232 219 209 222 202 230 252 230
320 321 329 333 337 343 338 320 276 246 223 244 228 283 279 269 246 219 197 214 219 217 234 235 233 231 244 236 224 184 163 202 218 241 240 232 238 227 223 233 248 218 231 232
323 320 320 324 328 340 337 309 309 297 205 267 317 347 277 255 272 256 242 236 198 206 223 226 256 232 261 259 233 221 172 194 216 233 234 233 230 239 223 220 229 226 229 242
306 303 308 313 314 325 336 260 279 329 309 165 330 283 295 289 280 259 244 210 225 223 237 244 245 250 264 273 269 260 184 214 231 231 229 216 220 226 219 219 231 232 232 222
302 294 308 304 301 309 325 281 308 326 290 296 292 257 229 265 304 295 256 244 246 248 238 247 260 238 236 251 233 219 208 208 261 249 240 234 219 218 226 220 223 229 239 225
300 292 291 291 292 305 281 238 278 290 272 287 288 262 304 272 348 276 255 301 305 278 274 286 277 258 266 260 255 247 165 111 330 285 241 230 238 221 220 224 223 210 224 226
297 293 286 283 283 272 272 271 276 260 268 257 270 296 298 293 295 276 285 290 285 254 300 312 273 248 242 236 229 214 204 114 108 294 227 215 238 233 225 216 219 217 247 250
303 297 291 276 273 260 267 257 244 241 267 273 285 266 286 294 292 271 267 278 267 297 306 270 244 221 217 220 200 187 206 106 59 315 282 282 230 195 219 219 237 231 232 236
301 297 286 280 269 254 255 261 245 237 275 261 268 319 295 290 295 287 257 311 316 284 237 229 232 216 212 184 158 190 107 108 99 340 288 269 46 339 346 297 227 186 212 223
297 292 292 277 267 256 249 252 253 240 244 261 270 265 282 284 303 290 305 342 328 349 225 222 218 229 247 206 193 174 139 45 52 315 266 270 7 329 271 186 200 159 181 154
298 295 290 289 278 268 248 252 252 251 261 272 265 259 267 274 278 289 324 322 48 300 241 241 166 221 209 205 167 166 157 144 129 305 251 248 355 321 258 50 104 131 110 110
290 298 297 274 270 255 253 255 260 266 251 263 272 271 260 252 251 259 251 296 301 284 309 352 286 255 262 270 177 198 157 158 142 199 274 323 339 291 5 107 94 90 104 108
287 300 297 276 273 265 258 263 257 259 269 285 267 265 282 262 247 249 239 269 207 217 357 294 277 268 257 195 137 161 59 153 132 131 99 288 4 54 70 79 78 78 88 96
299 300 292 297 296 283 264 259 269 260 269 278 294 304 296 285 225 224 221 214 167 326 337 256 259 258 238 209 26 67 31 312 141 95 139 157 72 68 73 83 83 82 79 78
314 291 304 308 279 288 274 277 267 260 236 299 294 309 344 333 226 225 219 227 237 296 7 268 254 284 250 112 111 41 344 348 192 165 135 112 136 122 96 83 74 75 84 79
312 315 278 295 304 305 309 297 285 226 220 276 296 309 314 351 255 196 196 196 204 221 182 244 259 324 295 65 80 7 357 352 239 32 130 108 117 93 87 92 86 81 76 71
337 329 305 300 305 300 299 290 359 172 192 260 292 292 286 339 125 164 177 180 201 205 222 247 315 7 55 50 49 338 16 70 95 108 113 89 78 72 75 72 67 67 63 57
327 294 271 289 299 308 325 341 261 203 267 277 286 280 300 344 190 170 174 160 180 267 279 221 8 28 59 58 3 12 50 74 82 84 91 93 92 82 74 71 64 64 56 49
334 315 310 311 347 85 306 345 181 216 232 300 272 293 324 337 289 153 166 171 151 187 87 46 54 49 57 1 8 24 41 78 81 66 66 66 63 80 73 68 63 59 51 48
357 357 357 349 347 328 340 10 176 184 223 237 259 275 280 326 329 140 160 179 115 105 61 103 63 69 76 37 56 68 71 81 87 77 59 50 42 52 67 36 35 39 32 26
3 355 342 330 333 335 304 294 259 213 237 214 249 257 290 305 318 6 30 122 127 95 96 84 78 64 73 109 34 71 88 104 123 126 134 109 98 77 61 55 46 44 45 42
338 323 321 335 349 329 298 282 265 243 312 279 268 304 265 307 320 305 20 52 61 81 86 74 82 76 64 98 92 74 89 95 90 88 82 74 67 63 59 56 55 52 46 32
348 349 335 354 350 27 17 359 6 337 348 326 329 319 321 333 353 303 339 52 53 100 51 55 72 86 70 102 94 72 71 74 83 79 72 66 58 44 39 38 35 31 30 24
22 356 13 6 27 13 309 319 309 301 295 315 309 293 20 352 349 337 46 30 270 72 80 57 91 93 83 70 83 71 63 63 60 54 47 44 39 35 30 27 26 26 33 32
40 15 27 14 309 305 304 310 331 338 324 328 266 71 318 337 43 12 4 42 44 25 80 101 85 102 94 79 68 64 61 55 48 40 34 32 29 28 27 23 21 20 25 31
30 27 340 339 310 1 14 10 5 357 346 359 28 56 54 27 20 42 9 60 16 30 56 68 75 81 70 62 54 43 39 37 35 25 15 14 17 10 9 14 19 20 19 24
25 355 339 341 314 331 352 352 347 358 355 18 355 47 24 288 44 43 21 64 309 21 44 54 78 63 60 56 46 36 28 24 25 20 32 34 24 26 16 16 16 23 19 11